Location: Lake Crest
(37.6062°N, 88.9176°W)
Time: 07:20:36
(UTC+00:00)

Cosmos 2084 Rocket - Pass Details

Date: 15 December 2019
Orbit: 572 x 609 km, 62.8° (Epoch: 19 January)

Event Time Altitude Azimuth Distance (km) Brightness Sun altitude
Rises 00:45:17 0° 212° (SSW) 2,810 7.6 -24.4°
Reaches altitude 10° 00:47:30 10° 213° (SSW) 1,919 6.6 -24.8°
Enters shadow 00:51:13 65° 216° (SW) 660 3.7 -25.6°
